STARLINK-31395

operational
NORAD ID: 59180 Int'l Des: 2024-045 Owner: SPXS Country: US Constellation: starlink
LEOCIRCULAR

关于 STARLINK-31395

正在加载描述...

实时位置

正在加载3D地球...

即将过境

高度历史

Altitude vs Time

uPlot chart will show altitude changes over time

两行轨道根数

1 59180U 24045C 25251.43920544 -.00001287 00000-0 -37272-4 0 9999
2 59180 43.0019 42.2216 0002017 266.7979 93.2642 15.27566244 85286
Epoch: Sep 8, 2025 • Age: 9 hours

当前状态

高度 493.2 km
速度 7.62 km/s
星下点 -38.41°S, 59.14°E
发射日期 Mar 11, 2024
运行时间 1.4 years
类型 internet

技术详情

分类 Payload
质量 730.00 kg
干质量 700.00 kg
总质量 730.00 kg
长度 0.30 m
直径 4.10 m
跨度 29.00 m
形状 Box + pan
制造商 SPXS
平台类型 Starlink V2M
阶段状态 In Orbit
所有者/国家 SPXS/US

大型星座

Loading constellations...